Погода в Большом Кирдяшеве

Россия / Пензенская область     53°42′22″N   43°46′12″E
темп.,
°C
ветер,
м/с
пор.,
м/с
влажн.,
%
обл.,
%
осадки,
мм/ч
давл.,
гПа
погр.,
м
13 мая, чт
чт1300:00+12ююв239846 0.1 102163
03:00+12ююв2395100 0.1 1021112
06:00+12в139599 0.0 1020145
09:00+17в4682100 0.5 1019648
12:00+16вюв5788100 1.4 1018650
15:00+18юв36869 4.0 1017590
18:00+18ююв35850 0.6 1016208
21:00+14ю22930 0.9 101814
14 мая, пт
пт1400:00+13ю119354 0.0 101910
03:00+13юв129377 0.0 101911
06:00+14юв2392100 0.0 102088
09:00+19юв347971 0.0 1019382
12:00+23юв456161 0.0 10191210
15:00+24юв455882 0.0 10171439
18:00+22юв497671 0.0 1016313
21:00+17ююв389097 0.0 1016146
15 мая, сб
сб1500:00+16юв3890100 0.0 1016138
03:00+15юв515756 0.0 1015292
06:00+16ююв51670100 0.0 1015367
09:00+20ююв61660100 0.0 1015585
12:00+24ю7155175 0.0 10161105
15:00+25ю6115459 0.0 10151500
18:00+22ю5126211 0.0 1014543
21:00+17ююв398023 0.0 1015144
16 мая, вс
вс1600:00+15ю348582 0.0 101554
03:00+14ю228799 0.0 101519
06:00+16ю1283100 0.0 101677
09:00+20ююв336898 0.0 1016349
12:00+24ююз46535 0.0 10161080
15:00+25ю58525 0.0 10151183
18:00+23ю36689 0.0 1015168
21:00+17ю22746 0.0 101614
17 мая, пн
пн1700:00+16вюв117544 0.0 101611
03:00+15в228112 0.0 101612
06:00+17вюв267966 0.0 1016127
09:00+23ююв455942 0.0 1016369
12:00+27юв454513 0.0 1016968
15:00+28ююв474428 0.0 10152730
18:00+24юв366130 0.0 1015129
21:00+19юв336272 0.0 101644